Weather History for KMPO - August, 2014

Change the Weather History Date:

Sunday, August 10, 2014

  Actual Average Record
Temperature  
Mean Temperature 66 °F 68 °F  
Max Temperature 80 °F 78 °F 93 °F (1911)
Min Temperature 51 °F 58 °F 39 °F (1964)
Degree Days  
Heating Degree Days 0 1  
Month to date heating degree days 5 10  
Since 1 June heating degree days 84 132  
Since 1 July heating degree days 29 32  
Cooling Degree Days 1 4  
Month to date cooling degree days 16 40  
Year to date cooling degree days 191 242  
Since 1 June cooling degree days 184 223  
Growing Degree Days 15 (Base 50)    
Moisture  
Dew Point 52 °F    
Average Humidity 63    
Maximum Humidity 89    
Minimum Humidity 37    
Precipitation  
Precipitation 0.00 in 0.15 in 1.81 in (1952)
Month to date precipitation T 1.62  
Year to date precipitation 25.90 28.14  
Sea Level Pressure  
Sea Level Pressure 30.16 in    
Wind  
Wind Speed 3 mph (SSE)    
Max Wind Speed 10 mph    
Max Gust Speed 17 mph    
Visibility 10 miles    
Events      
T = Trace of Precipitation, MM = Missing Value Source: NWS Daily Summary

Daily Weather History Graph

Daily Weather History Graph

Search for Another Location

Airport or City:

Trip Planner

Search our weather history database for the weather conditions in past years. The results will help you decide how hot, cold, wet, or windy it might be!

Date:

Astronomy

Aug. 10, 2014 Rise Set
Actual Time 6:05 AM EDT 8:07 PM EDT
Civil Twilight 5:35 AM EDT 8:37 PM EDT
Nautical Twilight 4:59 AM EDT 9:13 PM EDT
Astronomical Twilight 4:19 AM EDT 9:53 PM EDT
Moon 7:51 PM EDT (8/10) 5:55 AM EDT (8/10)
Length of Visible Light 15h 01m
Length of Day
14h 01m
Full, 100% of the Moon is Illuminated
Aug 10
Full
Aug 10
Full
Aug 17
Last Quarter
Aug 25
New
Sep 2
First Quarter

Hourly Weather History & Observations

Time (EDT) Temp. Dew Point Humidity Pressure Visibility Wind Dir Wind Speed Gust Speed Precip Events Conditions
12:53 AM 55.9 °F 51.1 °F 84% 30.17 in 10.0 mi Calm Calm - N/A   Clear
1:53 AM 53.1 °F 50.0 °F 89% 30.17 in 10.0 mi Calm Calm - N/A   Clear
2:53 AM 53.1 °F 50.0 °F 89% 30.17 in 10.0 mi Calm Calm - N/A   Clear
3:53 AM 53.1 °F 50.0 °F 89% 30.17 in 10.0 mi Calm Calm - N/A   Clear
5:53 AM 52.0 °F 48.9 °F 89% 30.17 in 10.0 mi Calm Calm - N/A   Clear
6:53 AM 53.1 °F 50.0 °F 89% 30.18 in 10.0 mi Calm Calm - N/A   Clear
8:53 AM 71.1 °F 55.9 °F 59% 30.19 in 10.0 mi Calm Calm - N/A   Clear
10:53 AM 75.0 °F 53.1 °F 46% 30.19 in 10.0 mi East 6.9 mph - N/A   Mostly Cloudy
11:53 AM 77.0 °F 51.1 °F 40% 30.19 in 10.0 mi Variable 5.8 mph - N/A   Partly Cloudy
12:53 PM 75.0 °F 50.0 °F 41% 30.19 in 10.0 mi SW 6.9 mph - N/A   Unknown
1:53 PM 78.1 °F 50.0 °F 37% 30.17 in 10.0 mi Variable 4.6 mph - N/A   Mostly Cloudy
2:53 PM 77.0 °F 51.1 °F 40% 30.17 in 10.0 mi South 6.9 mph - N/A   Clear
3:53 PM 77.0 °F 50.0 °F 39% 30.16 in 10.0 mi SE 6.9 mph - 0.00 in   Clear
4:53 PM 77.0 °F 50.0 °F 39% 30.15 in 10.0 mi SSE 4.6 mph - 0.00 in   Mostly Cloudy
5:53 PM 78.1 °F 51.1 °F 39% 30.14 in 10.0 mi SSE 6.9 mph - N/A   Mostly Cloudy
6:53 PM 75.9 °F 53.1 °F 45% 30.14 in 10.0 mi South 4.6 mph - N/A   Mostly Cloudy
8:26 PM 69.1 °F 57.9 °F 68% 30.16 in 2.5 mi Calm Calm - N/A   Haze
8:35 PM 69.1 °F 57.9 °F 68% 30.16 in 10.0 mi Calm Calm - N/A   Overcast
8:53 PM 70.0 °F 57.0 °F 63% 30.13 in 10.0 mi Calm Calm - N/A   Overcast
9:53 PM 66.9 °F 57.9 °F 73% 30.14 in 10.0 mi Calm Calm - N/A   Overcast
10:53 PM 64.0 °F 55.9 °F 75% 30.14 in 10.0 mi Calm Calm - N/A   Partly Cloudy